Content
SEND FEEDBACK

Daily
Averages
Monthly
Summary
United States of America

ACHANG BAY, GUAM


Home > North America > United States > Guam
Elevation: 30 feet     Latitude: 13 16N     Longitude: 144 45E

WEATHER
 
SELECT A DAY
Number of Records: 342,166;   Date Range: 1/1/95 - 8/12/14
 
SHARE

PRINT THIS DATA

[ ← Previous Day ]
WEATHER ALMANAC - DECEMBER 26, 2013
[ Next Day → ]
[ °C ]   °F
Weather ElementAverageHighLow
Temperature79.4 °F84.2 °F (1:31 pm)75.2 °F (3:26 am)
Dewpoint74 °F78.8 °F (2:31 pm) (7:00 pm)
Humidity89.3 %100 % (1:27 am)74 % (1:31 pm)
Barometer29.88 in29.96 in (9:08 am)29.56 in (2:34 pm)
Wind Speed21.3 mph28.8 mph (3:16 am)
Wind Gust41.4 mph (3:16 am)
Weather ElementAverage
Visibility9.6 mi
Wind DirectionENE (66.5 °)

Weather ElementTotal
Precipitation0.07 in
Cooling Degree Days14.7 (Base 65)
Growing Degree Days29.7 (Base 50)
Averaged from 78 records on December 26, 2013
WEATHER CONDITIONS BREAKOUT
WIND DIRECTION BREAKOUT
WEATHER BY HOUR - DECEMBER 26, 2013
[ °C ]   °F
Local TimeTemperatureDewpointHumidityBarometerVisibilityWind DirectionWind SpeedGust SpeedPrecipitationEventsConditions
12:17 AM77.0 °F0.0 °F29.92 in10.0 miENE (70°)21.9 mph28.8 mphMostly Cloudy
12:22 AM77.0 °F0.0 °F29.92 in10.0 miENE (70°)24.2 mph28.8 mphMostly Cloudy
12:58 AM78.1 °F77.7 °F99 %29.89 in10.0 miENE (60°)25.3 mph32.2 mph0.00 inMostly Cloudy
1:18 AM78.8 °F77.0 °F94 %29.91 in10.0 miENE (60°)25.3 mph29.9 mphMostly Cloudy
1:22 AM78.8 °F77.0 °F94 %29.91 in9.0 miENE (70°)26.5 mph32.2 mphLight Drizzle
1:27 AM77.0 °F77.0 °F100 %29.91 in8.0 miEast (80°)20.7 mph32.2 mphRainLight Rain
1:32 AM77.0 °F77.0 °F100 %29.91 in9.0 miENE (60°)18.4 mph31.1 mphRainLight Rain
1:37 AM77.0 °F77.0 °F100 %29.90 in10.0 miENE (60°)19.6 mphRainLight Rain
1:41 AM77.0 °F77.0 °F100 %29.90 in10.0 miENE (60°)21.9 mph27.6 mphMostly Cloudy
1:46 AM78.8 °F77.0 °F94 %29.90 in10.0 miENE (60°)20.7 mph27.6 mphScattered Clouds
1:53 AM78.8 °F77.0 °F94 %29.89 in10.0 miENE (60°)20.7 mph27.6 mphLight Drizzle
1:58 AM77.9 °F77.9 °F100 %29.86 in8.0 miENE (60°)18.4 mph27.6 mph0.02 inLight Drizzle
2:03 AM77.0 °F77.0 °F100 %29.89 in8.0 miENE (60°)25.3 mph33.4 mphLight Drizzle
2:06 AM78.8 °F77.0 °F94 %29.89 in9.0 miENE (60°)24.2 mph33.4 mphScattered Clouds
2:11 AM78.8 °F77.0 °F94 %29.89 in9.0 miENE (60°)25.3 mph34.5 mphScattered Clouds
2:16 AM77.0 °F77.0 °F100 %29.89 in6.0 miENE (60°)26.5 mph34.5 mphRainLight Rain
2:21 AM78.8 °F77.0 °F94 %29.89 in7.0 miENE (60°)23.0 mph32.2 mphRainLight Rain
2:26 AM78.8 °F77.0 °F94 %29.89 in10.0 miENE (60°)24.2 mph32.2 mphLight Drizzle
2:32 AM78.8 °F77.0 °F94 %29.89 in10.0 miENE (60°)24.2 mph32.2 mphScattered Clouds
2:33 AM78.8 °F77.0 °F94 %29.89 in10.0 miENE (60°)25.3 mph32.2 mphRainLight Rain
2:43 AM78.8 °F77.0 °F94 %29.89 in10.0 miENE (60°)23.0 mph31.1 mphPartly Cloudy
2:58 AM78.4 °F77.5 °F97 %29.86 in10.0 miENE (60°)24.2 mph29.9 mph0.01 inPartly Cloudy
3:06 AM78.8 °F77.0 °F94 %29.88 in10.0 miENE (70°)24.2 mphLight Drizzle
3:16 AM77.0 °F75.2 °F94 %29.88 in7.0 miENE (70°)28.8 mph41.4 mphRainLight Rain
3:21 AM77.0 °F75.2 °F94 %29.89 in6.0 miENE (70°)21.9 mph41.4 mphRainLight Rain
3:26 AM75.2 °F75.2 °F100 %29.88 in8.0 miENE (70°)20.7 mph33.4 mphRainLight Rain
3:31 AM77.0 °F75.2 °F94 %29.88 in10.0 miEast (80°)17.3 mphRainLight Rain
3:32 AM77.0 °F75.2 °F94 %29.88 in10.0 miENE (70°)17.3 mphScattered Clouds
3:42 AM77.0 °F75.2 °F94 %29.88 in10.0 miENE (70°)24.2 mph31.1 mphMostly Cloudy
3:47 AM77.0 °F77.0 °F100 %29.88 in10.0 miENE (70°)21.9 mph31.1 mphScattered Clouds
3:58 AM77.7 °F77.5 °F99 %29.86 in10.0 miENE (70°)21.9 mph0.03 inScattered Clouds
4:12 AM77.0 °F77.0 °F100 %29.88 in10.0 miENE (70°)23.0 mph34.5 mphRainLight Rain
4:23 AM78.8 °F77.0 °F94 %29.88 in10.0 miENE (70°)27.6 mph32.2 mphPartly Cloudy
4:58 AM78.3 °F76.1 °F93 %29.86 in10.0 miENE (70°)18.4 mph29.9 mph0.00 inPartly Cloudy
5:58 AM78.4 °F76.1 °F92 %29.86 in10.0 miENE (70°)23.0 mph31.1 mphPartly Cloudy
6:58 AM78.6 °F75.4 °F90 %29.88 in10.0 miENE (70°)19.6 mphScattered Clouds
7:03 AM78.8 °F75.2 °F89 %29.91 in10.0 miENE (60°)24.2 mph27.6 mphLight Drizzle
7:12 AM78.8 °F75.2 °F89 %29.92 in10.0 miENE (70°)24.2 mph32.2 mphPartly Cloudy
7:58 AM79.5 °F74.5 °F84 %29.91 in10.0 miENE (70°)21.9 mph0.00 inPartly Cloudy
8:22 AM78.8 °F75.2 °F89 %29.95 in10.0 miENE (70°)20.7 mph28.8 mphRainLight Rain
8:32 AM78.8 °F77.0 °F94 %29.95 in10.0 miENE (70°)21.9 mph33.4 mphLight Drizzle
8:34 AM78.8 °F77.0 °F94 %29.95 in10.0 miENE (70°)24.2 mph33.4 mphMostly Cloudy
8:39 AM78.8 °F75.2 °F89 %29.95 in10.0 miENE (70°)21.9 mph33.4 mphScattered Clouds
8:49 AM80.6 °F75.2 °F84 %29.95 in10.0 miENE (70°)24.2 mphMostly Cloudy
8:54 AM80.6 °F77.0 °F89 %29.95 in10.0 miENE (70°)20.7 mph26.5 mphMostly Cloudy
8:58 AM80.4 °F76.1 °F87 %29.92 in10.0 miENE (70°)25.3 mph26.5 mph0.01 inMostly Cloudy
9:08 AM80.6 °F75.2 °F84 %29.96 in10.0 miEast (80°)20.7 mphScattered Clouds
9:58 AM82.8 °F76.3 °F81 %29.92 in10.0 miEast (80°)19.6 mphScattered Clouds
10:40 AM82.4 °F75.2 °F79 %29.91 in10.0 miEast (80°)20.7 mphMostly Cloudy
10:50 AM82.4 °F75.2 °F79 %29.91 in10.0 miEast (80°)18.4 mphMostly Cloudy
10:55 AM82.4 °F75.6 °F80 %29.91 in10.0 miEast (80°)19.6 mphScattered Clouds
11:55 AM83.1 °F76.3 °F80 %29.88 in10.0 miENE (70°)19.6 mphScattered Clouds
12:55 PM83.1 °F76.5 °F80 %29.85 in10.0 miENE (70°)21.9 mph26.5 mphScattered Clouds
1:17 PM82.4 °F77.0 °F84 %29.83 in10.0 miENE (60°)16.1 mphMostly Cloudy
1:31 PM84.2 °F75.2 °F74 %29.83 in10.0 miENE (60°)20.7 mph24.2 mphScattered Clouds
1:55 PM83.5 °F76.1 °F78 %29.81 in10.0 miENE (70°)16.1 mph25.3 mphPartly Cloudy
2:28 PM84.2 °F77.0 °F79 %29.81 in8.0 miENE (70°)17.3 mphRainLight Rain
2:31 PM82.4 °F78.8 °F89 %29.81 in7.0 miENE (70°)16.1 mph23.0 mphRainLight Rain
2:34 PM82.4 °F75.2 °F79 %29.56 in7.0 miENE (60°)18.4 mph25.3 mphRainLight Rain
2:39 PM80.6 °F77.0 °F89 %29.80 in9.0 miENE (60°)18.4 mph25.3 mphScattered Clouds
2:55 PM82.6 °F75.9 °F80 %29.80 in10.0 miENE (60°)19.6 mph25.3 mph0.00 inPartly Cloudy
3:58 PM81.7 °F74.7 °F79 %29.81 in10.0 miENE (60°)19.6 mph27.6 mphScattered Clouds
4:23 PM80.6 °F75.2 °F84 %29.84 in10.0 miENE (60°)20.7 mph27.6 mphMostly Cloudy
4:28 PM80.6 °F73.4 °F79 %29.84 in10.0 miENE (70°)18.4 mph27.6 mphMostly Cloudy
4:58 PM80.6 °F74.8 °F83 %29.81 in10.0 miENE (70°)19.6 mph26.5 mphPartly Cloudy
5:58 PM79.9 °F74.1 °F82 %29.83 in10.0 miENE (60°)18.4 mph24.2 mphScattered Clouds
6:03 PM80.6 °F73.4 °F79 %29.86 in10.0 miENE (60°)20.7 mph25.3 mphMostly Cloudy
6:13 PM80.6 °F73.4 °F79 %29.86 in10.0 miENE (60°)19.6 mph25.3 mphMostly Cloudy
6:18 PM80.6 °F73.4 °F79 %29.86 in10.0 miENE (60°)20.7 mph26.5 mphMostly Cloudy
6:38 PM80.6 °F75.2 °F84 %29.86 in10.0 miENE (60°)18.4 mph25.3 mphScattered Clouds
6:43 PM78.8 °F75.2 °F89 %29.87 in10.0 miENE (60°)19.6 mph25.3 mphMostly Cloudy
6:58 PM79.7 °F74.7 °F84 %29.84 in10.0 miENE (60°)17.3 mph25.3 mphMostly Cloudy
7:43 PM80.6 °F75.2 °F84 %29.88 in10.0 miENE (60°)21.9 mphScattered Clouds
7:58 PM79.7 °F75.2 °F86 %29.86 in10.0 miENE (60°)16.1 mph27.6 mphScattered Clouds
8:58 PM79.5 °F75.6 °F88 %29.87 in10.0 miENE (70°)18.4 mph27.6 mphPartly Cloudy
9:58 PM78.6 °F74.7 °F88 %29.89 in10.0 miENE (70°)18.4 mph25.3 mphPartly Cloudy
10:58 PM79.2 °F73.2 °F82 %29.90 in10.0 miEast (80°)20.7 mph29.9 mphScattered Clouds
11:58 PM78.8 °F75.4 °F89 %29.89 in10.0 miENE (70°)18.4 mph25.3 mphPartly Cloudy
Hourly data recorded from PGUA, located miles away from Achang Bay, Guam







STORIES FROM OUR PARTNERS